Location: Bern/Schweiz
(46.9381°N, 7.4364°E)
Time: 21:51:34
(UTC+01:00)

ISS - Pass Details

Date: 28 September 2020
Orbit: 417 x 420 km, 51.6° (Epoch: 27 October)

Event Time Altitude Azimuth Distance (km) Brightness Sun altitude
Rises 20:14:42 0° 286° (WNW) 2,368 2.2 -11.0°
Reaches altitude 10° 20:16:55 10° 295° (WNW) 1,504 0.4 -11.3°
Maximum altitude 20:20:03 35° 3° (N) 694 -2.6 -11.9°
Enters shadow 20:22:19 16° 65° (ENE) 1,184 -2.0 -12.2°
